VK4UCZ-13 Weather Reports


time (UTC)temp
C
wind
direction
speed
KPH
gust
KPH
rain 1hr
cm
rain 24hr
cm
rain mn
cm
humidity
%
barometer
mb
20260902124335 15 124 0.0 1.6 0.00 0.00 0.00 86 1011.2
20260902123335 15 143 1.6 1.6 0.00 0.00 0.00 85 1011.4
20260902122335 16 143 0.0 1.6 0.00 0.00 0.00 84 1011.3
20260902121335 15 205 0.0 1.6 0.00 0.00 0.00 85 1011.3
20260902120335 16 89 0.0 1.6 0.00 0.00 0.00 84 1011.3
20260902115335 16 136 1.6 1.6 0.00 0.00 0.00 84 1011.3
20260902114335 16 135 0.0 1.6 0.00 0.00 0.00 83 1011.2
20260902113712 16 126 0.0 3.2 0.00 0.00 0.00 82 1011.1
20260902095335 18 108 1.6 4.8 0.00 0.00 0.00 80 1010.8
20260902094335 18 127 0.0 6.4 0.00 0.00 0.00 80 1010.7
20260902093335 18 133 0.0 1.6 0.00 0.00 0.00 80 1010.6
20260902092335 18 74 1.6 8.0 0.00 0.00 0.00 80 1010.6
20260902091335 18 148 0.0 6.4 0.00 0.00 0.00 81 1010.7
20260902090335 18 37 0.0 4.8 0.00 0.00 0.00 80 1010.5
20260902085335 18 144 1.6 8.0 0.00 0.00 0.00 80 1010.5
20260902084335 18 177 1.6 3.2 0.00 0.00 0.00 80 1010.4
20260902083335 19 135 1.6 4.8 0.00 0.00 0.00 80 1010.2
20260902082335 19 144 0.0 1.6 0.00 0.00 0.00 79 1010.2
20260902081335 20 116 0.0 1.6 0.00 0.00 0.00 77 1010.2
20260902080335 20 136 1.6 3.2 0.00 0.00 0.00 76 1010.1
20260902075335 20 79 1.6 3.2 0.00 0.00 0.00 74 1010.1
20260902074335 20 121 8.0 9.7 0.00 0.00 0.00 73 1009.9
20260902073335 21 57 1.6 6.4 0.00 0.00 0.00 71 1010.0
20260902072335 21 43 1.6 9.7 0.00 0.00 0.00 69 1009.8
20260902071335 21 61 1.6 9.7 0.00 0.00 0.00 67 1009.4
20260902070335 22 129 3.2 9.7 0.00 0.00 0.00 66 1009.4
20260902065335 22 80 1.6 11.3 0.00 0.00 0.00 65 1009.3
20260902064335 22 98 4.8 14.5 0.00 0.00 0.00 64 1009.4
20260902063335 22 112 3.2 8.0 0.00 0.00 0.00 67 1009.3
20260902062335 22 95 3.2 14.5 0.00 0.00 0.00 66 1009.2
20260902061335 22 89 1.6 12.9 0.00 0.00 0.00 65 1009.3
20260902060335 22 158 1.6 12.9 0.00 0.00 0.00 65 1009.3
20260902055335 23 99 6.4 16.1 0.00 0.00 0.00 63 1009.4
20260902054335 23 139 0.0 12.9 0.00 0.00 0.00 63 1009.1
20260902053335 23 166 3.2 11.3 0.00 0.00 0.00 63 1009.3
20260902052335 24 221 0.0 12.9 0.00 0.00 0.00 62 1009.4
20260902051335 24 12 1.6 11.3 0.00 0.00 0.00 62 1009.3
20260902050335 25 80 1.6 11.3 0.00 0.00 0.00 60 1009.3
20260902045335 25 96 1.6 9.7 0.00 0.00 0.00 60 1009.5
20260902044335 25 65 4.8 8.0 0.00 0.00 0.00 59 1009.4
20260902043335 25 20 1.6 11.3 0.00 0.00 0.00 58 1009.7
20260902042335 25 132 1.6 16.1 0.00 0.00 0.00 56 1009.7
20260902041335 24 109 4.8 9.7 0.00 0.00 0.00 57 1009.8
20260902040335 24 127 3.2 14.5 0.00 0.00 0.00 56 1009.9
20260902035335 25 154 3.2 11.3 0.00 0.00 0.00 54 1010.1
20260902034335 26 57 4.8 9.7 0.00 0.00 0.00 41 1010.3
20260902033335 26 22 3.2 9.7 0.00 0.00 0.00 42 1010.2
20260902032335 26 274 1.6 3.2 0.00 0.00 0.00 41 1010.3
20260902031335 27 330 4.8 6.4 0.00 0.00 0.00 42 1010.7
20260902030335 26 4 3.2 9.7 0.00 0.00 0.00 43 1010.9
20260902025335 25 238 0.0 8.0 0.00 0.00 0.00 47 1010.9
20260902024335 25 298 8.0 14.5 0.00 0.00 0.00 45 1011.0
20260902023335 25 347 4.8 9.7 0.00 0.00 0.00 45 1011.5
20260902022335 26 26 22.5 22.5 0.00 0.00 0.00 46 1011.8
20260902021335 25 62 8.0 17.7 0.00 0.00 0.00 50 1012.2
20260902020335 25 44 9.7 17.7 0.00 0.00 0.00 50 1012.3
20260902015335 25 55 8.0 11.3 0.00 0.00 0.00 50 1012.5
20260902014335 24 53 6.4 8.0 0.00 0.00 0.00 52 1012.8
20260902013335 23 204 0.0 6.4 0.00 0.00 0.00 55 1013.3
20260902012335 23 291 1.6 8.0 0.00 0.00 0.00 55 1013.2
20260902011335 23 106 6.4 9.7 0.00 0.00 0.00 54 1013.6
20260902010335 23 70 6.4 12.9 0.00 0.00 0.00 56 1013.8
20260902005335 22 200 1.6 6.4 0.00 0.00 0.00 59 1014.2
20260902004335 22 100 4.8 12.9 0.00 0.00 0.00 58 1014.2
20260902003335 22 180 3.2 4.8 0.00 0.00 0.00 59 1014.4
20260902002335 21 115 3.2 8.0 0.00 0.00 0.00 61 1014.6
20260902001335 21 163 3.2 12.9 0.00 0.00 0.00 64 1014.7
20260902000337 21 83 4.8 6.4 0.00 0.00 0.00 63 1015.0
20260901235335 21 54 4.8 8.0 0.00 0.00 0.00 63 1015.1
20260901234335 20 167 1.6 6.4 0.00 0.00 0.00 65 1015.1
20260901233335 20 153 1.6 9.7 0.00 0.00 0.00 63 1015.2
20260901232335 19 344 1.6 3.2 0.00 0.00 0.00 69 1015.4
20260901231335 19 85 4.8 9.7 0.00 0.00 0.00 73 1015.2
20260901230335 19 116 3.2 9.7 0.00 0.00 0.00 74 1015.5
20260901225335 19 69 0.0 4.8 0.00 0.00 0.00 73 1015.3
20260901224335 19 65 3.2 9.7 0.00 0.00 0.00 72 1015.3
20260901223335 18 60 0.0 4.8 0.00 0.00 0.00 75 1015.4
20260901222335 17 128 1.6 6.4 0.00 0.00 0.00 80 1015.6
20260901221335 17 269 0.0 6.4 0.00 0.00 0.00 81 1015.4
20260901220335 17 60 0.0 3.2 0.00 0.00 0.00 81 1015.4
20260901215335 16 63 3.2 6.4 0.00 0.00 0.00 84 1015.5
20260901214335 16 88 1.6 4.8 0.00 0.00 0.00 85 1015.4
20260901213335 15 62 1.6 1.6 0.00 0.00 0.00 91 1015.2
20260901212335 12 89 0.0 3.2 0.00 0.00 0.00 99 1015.1
20260901211335 12 86 1.6 3.2 0.00 0.00 0.00 99 1015.0
20260901210335 10 64 1.6 3.2 0.00 0.00 0.00 99 1015.0
20260901205335 10 60 0.0 1.6 0.00 0.00 0.00 99 1014.8
20260901204335 9 164 1.6 4.8 0.00 0.00 0.00 99 1014.6
20260901203335 8 68 1.6 3.2 0.00 0.00 0.00 99 1014.5
20260901202335 8 357 0.0 1.6 0.00 0.00 0.00 99 1014.7
20260901201335 8 57 0.0 3.2 0.00 0.00 0.00 99 1014.5
20260901200335 9 100 1.6 3.2 0.00 0.00 0.00 99 1014.5
20260901195335 9 115 1.6 3.2 0.00 0.00 0.00 99 1014.5
20260901194335 9 63 1.6 3.2 0.00 0.00 0.00 99 1014.4
20260901193335 9 143 1.6 3.2 0.00 0.00 0.00 99 1014.4
20260901192335 9 119 1.6 4.8 0.00 0.00 0.00 99 1014.2
20260901191335 9 89 0.0 3.2 0.00 0.00 0.00 99 1014.1
20260901190335 10 116 1.6 3.2 0.00 0.00 0.00 99 1014.2
20260901185335 10 141 0.0 3.2 0.00 0.00 0.00 99 1014.1
20260901184335 10 290 0.0 3.2 0.00 0.00 0.00 99 1014.0
20260901183335 11 71 1.6 3.2 0.00 0.00 0.00 99 1014.0
20260901182335 10 37 0.0 1.6 0.00 0.00 0.00 99 1014.2
20260901181335 10 105 0.0 3.2 0.00 0.00 0.00 99 1014.0
20260901180335 10 129 1.6 3.2 0.00 0.00 0.00 99 1014.0
20260901175335 10 225 0.0 1.6 0.00 0.00 0.00 99 1014.0
20260901174335 10 61 1.6 3.2 0.00 0.00 0.00 99 1014.1
20260901173335 10 33 1.6 3.2 0.00 0.00 0.00 99 1013.8
20260901172335 11 117 0.0 3.2 0.00 0.00 0.00 99 1014.0
20260901171335 10 52 0.0 1.6 0.00 0.00 0.00 99 1014.0
20260901170335 10 205 0.0 3.2 0.00 0.00 0.00 99 1014.4
20260901165335 11 73 0.0 1.6 0.00 0.00 0.00 99 1014.5
20260901164335 11 147 0.0 1.6 0.00 0.00 0.00 99 1014.6
20260901163335 12 134 0.0 1.6 0.00 0.00 0.00 99 1014.8
20260901162335 11 122 0.0 1.6 0.00 0.00 0.00 98 1014.9
20260901161335 12 59 0.0 1.6 0.00 0.00 0.00 97 1015.0
20260901160335 12 134 0.0 3.2 0.00 0.00 0.00 97 1014.8
20260901155335 13 27 1.6 1.6 0.00 0.00 0.00 98 1015.0
20260901154335 12 135 0.0 1.6 0.00 0.00 0.00 98 1015.2
20260901153335 12 339 0.0 1.6 0.00 0.00 0.00 98 1015.1
20260901152335 11 235 0.0 3.2 0.00 0.00 0.00 97 1014.8
20260901151335 11 70 0.0 3.2 0.00 0.00 0.00 96 1015.2
20260901150335 12 87 0.0 3.2 0.00 0.00 0.00 96 1015.2
20260901145335 12 329 0.0 1.6 0.00 0.00 0.00 96 1015.4
20260901144335 12 48 1.6 3.2 0.00 0.00 0.00 93 1015.5
20260901143335 14 54 0.0 4.8 0.00 0.00 0.00 91 1015.3
20260901142335 15 190 1.6 3.2 0.00 0.00 0.00 91 1015.4
20260901141335 14 129 0.0 1.6 0.00 0.00 0.00 93 1015.6
20260901140335 13 315 0.0 1.6 0.00 0.00 0.00 94 1015.8
20260901135335 13 230 1.6 3.2 0.00 0.00 0.00 98 1015.9
20260901134335 12 290 0.0 4.8 0.00 0.00 0.00 98 1015.9
20260901133335 12 162 1.6 1.6 0.00 0.00 0.00 98 1016.0
20260901132335 12 181 1.6 1.6 0.00 0.00 0.00 98 1016.1
20260901131335 12 65 1.6 3.2 0.00 0.00 0.00 98 1016.0
20260901130335 12 185 0.0 3.2 0.00 0.00 0.00 98 1016.3
20260901125335 12 92 0.0 1.6 0.00 0.00 0.00 97 1016.5